Copper Harbor, MI

10:47 PM EDT on August 21, 2017 (GMT -0400)
Copper Harbor

Weather History for KP59 - June, 2013

Change the Weather History Date:

Thursday, June 27, 2013

  Actual Average Record
Temperature  
Mean Temperature 54 °F -  
Max Temperature 64 °F 68 °F 90 °F (2005)
Min Temperature 46 °F 48 °F 46 °F (2013)
Degree Days  
Heating Degree Days 10    
Growing Degree Days 4 (Base 50)    
Moisture  
Dew Point 52 °F    
Average Humidity 95    
Maximum Humidity 100    
Minimum Humidity 81    
Precipitation  
Precipitation 0.16 in - - ()
Sea Level Pressure  
Sea Level Pressure 29.71 in    
Wind  
Wind Speed 2 mph (NNE)    
Max Wind Speed 8 mph    
Max Gust Speed -    
Averages and records for this station are not official NWS values.
T = Trace of Precipitation, MM = Missing Value Source: NWS Daily Summary

Daily Weather History Graph

Daily Weather History Graph

Search for Another Location

Airport or City:

Trip Planner

Search our weather history database for the weather conditions in past years. The results will help you decide how hot, cold, wet, or windy it might be!

Date:

Astronomy

Jun. 27, 2013 Rise Set
Actual Time 5:56 AM EDT 9:52 PM EDT
Civil Twilight 5:16 AM EDT 10:33 PM EDT
Nautical Twilight 4:20 AM EDT 11:28 PM EDT
Astronomical Twilight 2:53 AM EDT 12:54 AM EDT
Moon No Moon Rise 11:19 AM EDT (6/27)
Length of Visible Light 17h 16m
Length of Day
15h 56m
Waning Gibbous, 76% of the Moon is Illuminated
Jun 27
Waning Gibbous
Jun 30
Last Quarter
Jul 8
New
Jul 15
First Quarter
Jul 22
Full

Hourly Weather History & Observations

Time (EDT) Temp. Dew Point Humidity Pressure Visibility Wind Dir Wind Speed Gust Speed Precip Events Conditions
12:51 AM 62.1 °F 60.1 °F 93% 29.72 in - Calm Calm - N/A   Unknown
1:51 AM 52.0 °F 51.1 °F 97% 29.71 in - North 3.5 mph - N/A   Unknown
2:51 AM 50.0 °F 48.9 °F 96% 29.73 in - Calm Calm - N/A   Unknown
3:51 AM 51.1 °F 50.0 °F 96% 29.71 in - Calm Calm - N/A   Unknown
4:51 AM 48.9 °F 48.9 °F 100% 29.71 in - Calm Calm - N/A   Unknown
5:51 AM 51.1 °F 51.1 °F 100% 29.72 in - North 4.6 mph - N/A   Unknown
6:51 AM 52.0 °F 52.0 °F 100% 29.72 in - South 4.6 mph - 0.14 in   Unknown
7:51 AM 55.9 °F 55.0 °F 97% 29.72 in - Calm Calm - 0.02 in   Unknown
8:51 AM 54.0 °F 54.0 °F 100% 29.71 in - Calm Calm - N/A   Unknown
9:51 AM 53.1 °F 52.0 °F 96% 29.71 in - Calm Calm - N/A   Unknown
10:51 AM 53.1 °F 53.1 °F 100% 29.72 in - Calm Calm - N/A   Unknown
11:51 AM 52.0 °F 52.0 °F 100% 29.70 in - Calm Calm - N/A   Unknown
12:51 PM 55.0 °F 52.0 °F 89% 29.70 in - East 4.6 mph - N/A   Unknown
1:51 PM 55.0 °F 54.0 °F 96% 29.71 in - Calm Calm - N/A   Unknown
2:51 PM 48.9 °F 46.9 °F 93% 29.74 in - East 4.6 mph - N/A   Unknown
3:51 PM 52.0 °F 51.1 °F 97% 29.72 in - Calm Calm - N/A   Unknown
4:51 PM 55.9 °F 53.1 °F 90% 29.69 in - Calm Calm - N/A   Unknown
5:51 PM 52.0 °F 51.1 °F 97% 29.70 in - North 8.1 mph - N/A   Unknown
6:51 PM 55.0 °F 52.0 °F 89% 29.67 in - Calm Calm - N/A   Unknown
7:51 PM 63.0 °F 57.0 °F 81% 29.67 in - Calm Calm - N/A   Unknown
8:51 PM 57.0 °F 54.0 °F 89% 29.70 in - SW 8.1 mph - N/A   Unknown
9:51 PM 57.0 °F 55.0 °F 93% 29.70 in - North 3.5 mph - N/A   Unknown
10:51 PM 46.9 °F 46.0 °F 97% 29.70 in - Variable 3.5 mph - N/A   Unknown
11:51 PM 46.9 °F 46.0 °F 97% 29.68 in - Calm Calm - N/A   Unknown